Rosharon, TX

8:26 AM CST on February 24, 2017 (GMT -0600)
Houston-Southwest

Weather History for KAXH - November, 2012

Change the Weather History Date:

Tuesday, November 6, 2012

  Actual Average (KSGR) Record (KSGR)
Temperature  
Mean Temperature 63 °F -  
Max Temperature 77 °F 72 °F 87 °F (1963)
Min Temperature 48 °F 50 °F 32 °F (2000)
Degree Days  
Heating Degree Days 2    
Growing Degree Days 13 (Base 50)    
Moisture  
Dew Point 43 °F    
Average Humidity 53    
Maximum Humidity 80    
Minimum Humidity 24    
Precipitation  
Precipitation 0.00 in - - ()
Sea Level Pressure  
Sea Level Pressure 30.10 in    
Wind  
Wind Speed 3 mph (NNW)    
Max Wind Speed 12 mph    
Max Gust Speed 16 mph    
Visibility 10 miles    
Events      
Averages and records for this station are not official NWS values.
T = Trace of Precipitation, MM = Missing Value Source: NWS Daily Summary

Daily Weather History Graph

Daily Weather History Graph

Search for Another Location

Airport or City:

Trip Planner

Search our weather history database for the weather conditions in past years. The results will help you decide how hot, cold, wet, or windy it might be!

Date:

Astronomy

Nov. 06, 2012 Rise Set
Actual Time 6:39 AM CST 5:31 PM CST
Civil Twilight 6:14 AM CST 5:56 PM CST
Nautical Twilight 5:46 AM CST 6:24 PM CST
Astronomical Twilight 5:18 AM CST 6:52 PM CST
Moon No Moon Rise 12:35 PM CST (11/6)
Length of Visible Light 11h 41m
Length of Day
10h 52m
Waning Gibbous, 53% of the Moon is Illuminated
Nov 6
Waning Gibbous
Nov 6
Last Quarter
Nov 13
New
Nov 20
First Quarter
Nov 28
Full

Hourly Weather History & Observations

Time (CST) Temp. Dew Point Humidity Pressure Visibility Wind Dir Wind Speed Gust Speed Precip Events Conditions
12:15 AM 63.1 °F 55.8 °F 77% 30.03 in 10.0 mi Calm Calm - N/A   Scattered Clouds
12:35 AM 62.6 °F 56.3 °F 80% 30.03 in 10.0 mi Calm Calm - N/A   Mostly Cloudy
12:55 AM 63.5 °F 55.6 °F 75% 30.03 in 10.0 mi NNW 3.5 mph - N/A   Overcast
1:15 AM 63.7 °F 55.8 °F 75% 30.04 in 10.0 mi Calm Calm - N/A   Overcast
1:35 AM 63.5 °F 55.4 °F 75% 30.04 in 10.0 mi Calm Calm - N/A   Overcast
1:55 AM 63.1 °F 54.5 °F 73% 30.05 in 10.0 mi North 8.1 mph - N/A   Mostly Cloudy
2:15 AM 63.5 °F 51.8 °F 66% 30.06 in 10.0 mi North 8.1 mph - N/A   Scattered Clouds
2:35 AM 62.8 °F 46.2 °F 55% 30.06 in 10.0 mi North 5.8 mph - N/A   Clear
2:55 AM 61.3 °F 45.3 °F 56% 30.07 in 10.0 mi North 4.6 mph - N/A   Clear
3:15 AM 60.4 °F 45.0 °F 57% 30.06 in 10.0 mi North 3.5 mph - N/A   Clear
3:35 AM 59.2 °F 43.5 °F 56% 30.07 in 10.0 mi North 5.8 mph - N/A   Clear
3:55 AM 59.0 °F 42.1 °F 53% 30.07 in 10.0 mi North 4.6 mph - N/A   Clear
4:15 AM 57.9 °F 41.5 °F 54% 30.07 in 10.0 mi North 3.5 mph - N/A   Clear
4:35 AM 57.0 °F 41.2 °F 55% 30.07 in 10.0 mi Calm Calm - N/A   Clear
4:55 AM 55.6 °F 41.5 °F 59% 30.09 in 10.0 mi Calm Calm - N/A   Clear
5:15 AM 54.7 °F 42.1 °F 62% 30.09 in 10.0 mi Calm Calm - N/A   Clear
5:35 AM 52.9 °F 42.6 °F 68% 30.09 in 10.0 mi Calm Calm - N/A   Clear
5:55 AM 52.2 °F 43.7 °F 73% 30.09 in 10.0 mi Calm Calm - N/A   Clear
6:15 AM 52.5 °F 43.3 °F 71% 30.10 in 10.0 mi North 3.5 mph - N/A   Clear
6:35 AM 52.3 °F 43.0 °F 70% 30.11 in 10.0 mi Calm Calm - N/A   Clear
6:55 AM 51.3 °F 44.4 °F 77% 30.12 in 10.0 mi North 3.5 mph - N/A   Clear
7:15 AM 53.4 °F 45.1 °F 74% 30.12 in 10.0 mi Calm Calm - N/A   Clear
7:35 AM 56.8 °F 46.6 °F 69% 30.13 in 10.0 mi Calm Calm - N/A   Clear
7:55 AM 59.7 °F 46.4 °F 61% 30.14 in 10.0 mi North 3.5 mph - N/A   Clear
8:15 AM 61.2 °F 45.0 °F 55% 30.14 in 10.0 mi North 4.6 mph - N/A   Clear
8:35 AM 62.8 °F 45.0 °F 52% 30.15 in 10.0 mi North 5.8 mph - N/A   Clear
8:55 AM 63.9 °F 44.1 °F 49% 30.15 in 10.0 mi NNE 4.6 mph - N/A   Clear
9:15 AM 65.5 °F 44.6 °F 47% 30.15 in 10.0 mi North 3.5 mph - N/A   Clear
9:35 AM 66.2 °F 43.2 °F 43% 30.15 in 10.0 mi NNW 4.6 mph - N/A   Clear
9:55 AM 67.3 °F 42.8 °F 41% 30.15 in 10.0 mi NNW 5.8 mph - N/A   Clear
10:15 AM 68.4 °F 41.9 °F 38% 30.16 in 10.0 mi NNW 6.9 mph - N/A   Clear
10:35 AM 69.4 °F 41.2 °F 36% 30.15 in 10.0 mi NNW 5.8 mph - N/A   Clear
10:55 AM 70.9 °F 39.7 °F 32% 30.15 in 10.0 mi North 4.6 mph - N/A   Clear
11:15 AM 71.8 °F 40.5 °F 32% 30.15 in 10.0 mi NW 9.2 mph - N/A   Clear
11:35 AM 72.5 °F 39.2 °F 30% 30.14 in 10.0 mi NW 5.8 mph - N/A   Clear
11:55 AM 73.2 °F 39.9 °F 30% 30.14 in 10.0 mi NW 5.8 mph - N/A   Clear
12:15 PM 73.9 °F 39.6 °F 29% 30.13 in 10.0 mi NNW 5.8 mph - N/A   Clear
12:35 PM 74.7 °F 39.6 °F 28% 30.11 in 10.0 mi NNW 8.1 mph - N/A   Clear
12:55 PM 75.4 °F 37.2 °F 25% 30.10 in 10.0 mi NNW 9.2 mph - N/A   Clear
1:15 PM 75.7 °F 39.0 °F 27% 30.09 in 10.0 mi WNW 9.2 mph - N/A   Clear
1:35 PM 76.1 °F 37.4 °F 25% 30.09 in 10.0 mi WNW 8.1 mph 16.1 mph N/A   Clear
1:55 PM 76.3 °F 37.2 °F 24% 30.08 in 10.0 mi WNW 9.2 mph - N/A   Clear
2:15 PM 77.0 °F 39.7 °F 26% 30.08 in 10.0 mi NW 6.9 mph - N/A   Clear
2:35 PM 76.1 °F 37.4 °F 25% 30.08 in 10.0 mi NNW 11.5 mph 16.1 mph N/A   Clear
2:55 PM 75.9 °F 36.9 °F 24% 30.08 in 10.0 mi NNW 9.2 mph - N/A   Clear
3:15 PM 76.3 °F 37.6 °F 25% 30.08 in 10.0 mi North 10.4 mph - N/A   Clear
3:35 PM 76.1 °F 38.1 °F 25% 30.07 in 10.0 mi NNW 9.2 mph - N/A   Clear
4:15 PM 75.6 °F 39.2 °F 27% 30.07 in 10.0 mi NW 6.9 mph - N/A   Clear
4:35 PM 74.8 °F 39.2 °F 28% 30.07 in 10.0 mi NNW 4.6 mph - N/A   Clear
4:55 PM 73.6 °F 40.8 °F 31% 30.08 in 10.0 mi NW 4.6 mph - N/A   Clear
5:15 PM 71.2 °F 40.8 °F 33% 30.07 in 10.0 mi NW 3.5 mph - N/A   Clear
5:35 PM 68.4 °F 41.0 °F 37% 30.08 in 10.0 mi Calm Calm - N/A   Clear
5:55 PM 64.2 °F 43.9 °F 48% 30.08 in 10.0 mi Calm Calm - N/A   Clear
6:15 PM 60.6 °F 43.9 °F 54% 30.09 in 10.0 mi WNW 3.5 mph - N/A   Clear
6:35 PM 58.6 °F 43.5 °F 57% 30.09 in 10.0 mi Calm Calm - N/A   Clear
6:55 PM 56.1 °F 40.3 °F 55% 30.10 in 7.0 mi Calm Calm - N/A   Clear
7:15 PM 54.3 °F 38.5 °F 55% 30.10 in 7.0 mi Calm Calm - N/A   Clear
7:35 PM 54.3 °F 36.1 °F 50% 30.10 in 10.0 mi Calm Calm - N/A   Clear
7:55 PM 53.8 °F 39.2 °F 58% 30.11 in 10.0 mi Calm Calm - N/A   Clear
8:15 PM 53.8 °F 41.4 °F 63% 30.12 in 10.0 mi Calm Calm - N/A   Clear
8:35 PM 52.7 °F 37.9 °F 57% 30.12 in 10.0 mi Calm Calm - N/A   Clear
8:55 PM 52.3 °F 40.1 °F 63% 30.12 in 10.0 mi Calm Calm - N/A   Clear
9:15 PM 51.4 °F 42.1 °F 70% 30.13 in 5.0 mi Calm Calm - N/A   Haze
9:35 PM 50.4 °F 42.6 °F 75% 30.12 in 10.0 mi Calm Calm - N/A   Clear
9:55 PM 49.5 °F 42.3 °F 76% 30.12 in 10.0 mi Calm Calm - N/A   Clear
10:15 PM 49.5 °F 40.8 °F 72% 30.12 in 7.0 mi Calm Calm - N/A   Clear
10:35 PM 49.6 °F 40.5 °F 71% 30.12 in 7.0 mi Calm Calm - N/A   Clear
10:55 PM 49.8 °F 40.1 °F 69% 30.11 in 7.0 mi Calm Calm - N/A   Clear
11:15 PM 49.1 °F 40.8 °F 73% 30.11 in 7.0 mi Calm Calm - N/A   Clear
11:35 PM 49.1 °F 41.7 °F 76% 30.11 in 7.0 mi Calm Calm - N/A   Clear
11:55 PM 48.0 °F 41.0 °F 77% 30.11 in 10.0 mi Calm Calm - N/A   Clear